This is the latest recevied weather packets stored in our database for station/object K4AXV-13. If no packets are shown the sender has not sent any weather packets the latest 10 day(s).
| Time | Temp. | Humidity | Pressure | Rain* | Wind** | Luminosity | Snow |
|---|---|---|---|---|---|---|---|
| 1778102184 | 28.33° C | - | - | 0 mm | 2.24 m/s, 10° | - | - |
| 1778100684 | 28.33° C | - | - | 0 mm | 1.34 m/s, 311° | - | - |
| 1778100380 | 28.89° C | - | - | 0 mm | 0.45 m/s, 301° | - | - |
| 1778100082 | 28.33° C | - | - | 0 mm | 1.79 m/s, 114° | - | - |
| 1778099779 | 29.44° C | - | - | 0 mm | 0.89 m/s, 124° | - | - |
| 1778099480 | 29.44° C | - | - | 0 mm | 0.45 m/s, 4° | - | - |
| 1778099178 | 29.44° C | - | - | 0 mm | 2.24 m/s, 262° | - | - |
| 1778098879 | 28.89° C | - | - | 0 mm | 0.89 m/s, 79° | - | - |
| 1778098576 | 29.44° C | - | - | 0 mm | 1.34 m/s, 31° | - | - |
| 1778098276 | 29.44° C | - | - | 0 mm | 0.89 m/s, 270° | - | - |
| 1778097975 | 28.33° C | - | - | 0 mm | 0.89 m/s, 263° | - | - |
| 1778097676 | 28.89° C | - | - | 0 mm | 1.34 m/s, 277° | - | - |
| 1778097374 | 28.89° C | - | - | 0 mm | 0 m/s | - | - |
| 1778097075 | 28.89° C | - | - | 0 mm | 0.89 m/s, 325° | - | - |
| 1778096474 | 28.89° C | - | - | 0 mm | 0.89 m/s, 285° | - | - |
| 1778096173 | 28.33° C | - | - | 0 mm | 0.45 m/s, 352° | - | - |
| 1778094672 | 29.44° C | - | - | 0 mm | 0.89 m/s, 295° | - | - |
| 1778094370 | 29.44° C | - | - | 0 mm | 1.34 m/s, 318° | - | - |
| 1778094071 | 29.44° C | - | - | 0 mm | 0.89 m/s, 311° | - | - |
| 1778093769 | 29.44° C | - | - | 0 mm | 1.79 m/s, 0° | - | - |
| 1778092870 | 30° C | - | - | 0 mm | 1.79 m/s, 235° | - | - |
| 1778092568 | 30° C | - | - | 0 mm | 1.34 m/s, 332° | - | - |
| 1778092270 | 30° C | - | - | 0 mm | 1.34 m/s, 332° | - | - |
| 1778091968 | 29.44° C | - | - | 0 mm | 0.89 m/s, 305° | - | - |
| 1778091669 | 30° C | - | - | 0 mm | 1.34 m/s, 271° | - | - |
* Rain latest hour (hover to see other rain measurements)
** Current wind speed in m/s (hover to see current wind gust speed)